軌道要素
Epoch 2015 Oct. 25.0 TT = JDT 2457320.5
T 2015 Oct. 22.70981 TT MPCW
q 2.7795854 (2000.0) P Q
n 0.11996400 Peri. 278.84336 +0.94654950 -0.31974996
a 4.0716342 Node 99.81296 +0.31029243 +0.86665890
e 0.3173293 Incl. 2.47045 +0.08810585 +0.38296516
P 8.22
From 180 observations 1990 Sept. 24-2017 Jan. 27, mean residual 0".6.
Nongravitational parameters A1 = +5.39, A2 = -0.2961.
|